Fes Cuautitlan, Mexico

3:03 AM CST on February 26, 2017 (GMT -0600)
Lic Benito Juarez International

Weather History for MMMX - September, 2011

Change the Weather History Date:

Tuesday, September 13, 2011

  Actual Average Record
Temperature  
Mean Temperature 66 °F -  
Max Temperature 78 °F 71 °F 78 °F (2011)
Min Temperature 55 °F 52 °F 50 °F (2010)
Cooling Degree Days 2    
Growing Degree Days 16 (Base 50)    
Moisture  
Dew Point 47 °F    
Average Humidity 54    
Maximum Humidity 77    
Minimum Humidity 22    
Precipitation  
Precipitation 0.00 in - - ()
Sea Level Pressure  
Sea Level Pressure 30.24 in    
Wind  
Wind Speed 6 mph ()    
Max Wind Speed 15 mph    
Max Gust Speed -    
Visibility 12.1 miles    
Events      
Averages and records for this station are not official NWS values.
T = Trace of Precipitation, MM = Missing Value Source: Averaged Metar Reports

Daily Weather History Graph

Daily Weather History Graph

Search for Another Location

Airport or City:

Trip Planner

Search our weather history database for the weather conditions in past years. The results will help you decide how hot, cold, wet, or windy it might be!

Date:

Astronomy

Sep. 13, 2011 Rise Set
Actual Time 7:23 AM CDT 7:40 PM CDT
Civil Twilight 7:01 AM CDT 8:02 PM CDT
Nautical Twilight 6:35 AM CDT 8:28 PM CDT
Astronomical Twilight 6:10 AM CDT 8:54 PM CDT
Moon 8:21 PM CDT (9/13) 8:19 AM CDT (9/13)
Length of Visible Light 13h 01m
Length of Day
12h 17m
Full, 98% of the Moon is Illuminated
Sep 13
Full
Sep 20
Last Quarter
Sep 27
New
Oct 3
First Quarter
Oct 11
Full

Hourly Weather History & Observations

Time (CDT) Temp. Dew Point Humidity Pressure Visibility Wind Dir Wind Speed Gust Speed Precip Events Conditions
12:44 AM 62.6 °F 50.0 °F 63% 29.95 in 12.0 mi North 8.1 mph - N/A   Mostly Cloudy
1:45 AM 59.0 °F 50.0 °F 72% 30.42 in 15.0 mi West 5.8 mph - N/A   Scattered Clouds
2:44 AM 59.0 °F 48.2 °F 67% 30.41 in 15.0 mi North 3.5 mph - N/A   Partly Cloudy
3:54 AM 59.0 °F 48.2 °F 67% 30.39 in 15.0 mi NW 4.6 mph - N/A   Clear
4:02 AM 59.0 °F 48.2 °F 67% 29.79 in 15.0 mi NW 4.6 mph - N/A   Clear
4:44 AM 57.2 °F 48.2 °F 72% 30.39 in 15.0 mi NW 5.8 mph - N/A   Clear
5:45 AM 57.2 °F 44.6 °F 63% 30.40 in 15.0 mi NNW 4.6 mph - N/A   Clear
6:44 AM 55.4 °F 48.2 °F 77% 29.91 in 15.0 mi NW 4.6 mph - N/A   Clear
7:20 AM 55.4 °F 48.2 °F 77% 30.40 in 10.0 mi NNW 5.8 mph - N/A   Clear
7:47 AM 55.4 °F 46.4 °F 72% 30.41 in 10.0 mi North 5.8 mph - N/A   Scattered Clouds
8:21 AM 55.4 °F 48.2 °F 77% 30.41 in 10.0 mi Calm Calm - N/A   Scattered Clouds
8:44 AM 57.2 °F 48.2 °F 72% 30.41 in 10.0 mi ENE 4.6 mph - N/A   Scattered Clouds
9:20 AM 60.8 °F 44.6 °F 55% 30.41 in 10.0 mi ESE 4.6 mph - N/A   Scattered Clouds
9:21 AM 60.8 °F 44.6 °F 55% 30.41 in 10.0 mi ESE 4.6 mph - N/A   Scattered Clouds
9:47 AM 60.8 °F 44.6 °F 55% 29.93 in 10.0 mi East 5.8 mph - N/A   Scattered Clouds
10:21 AM 62.6 °F 44.6 °F 52% 30.41 in 12.0 mi ENE 6.9 mph - N/A   Scattered Clouds
10:45 AM 64.4 °F 44.6 °F 49% 30.40 in 12.0 mi NE 4.6 mph - N/A   Scattered Clouds
11:47 AM 68.0 °F 46.4 °F 46% 30.39 in 12.0 mi Calm Calm - N/A   Scattered Clouds
11:48 AM 68.0 °F 46.4 °F 46% 30.39 in 12.0 mi Calm Calm - N/A   Scattered Clouds
12:45 PM 69.8 °F 48.2 °F 46% 29.84 in 12.0 mi Calm Calm - N/A   Scattered Clouds
1:38 PM 73.4 °F 42.8 °F 33% 30.35 in 15.0 mi NNE 6.9 mph - N/A   Scattered Clouds
1:47 PM 75.2 °F 37.4 °F 25% 30.35 in 15.0 mi NE 11.5 mph - N/A   Scattered Clouds
2:49 PM 77.0 °F 35.6 °F 22% 30.31 in 12.0 mi NE 11.5 mph - N/A   Scattered Clouds
3:51 PM 77.0 °F 39.2 °F 26% 30.28 in 12.0 mi NE 10.4 mph - N/A   Scattered Clouds
3:54 PM 77.0 °F 39.2 °F 26% 29.67 in 12.0 mi NE 10.4 mph - N/A   Scattered Clouds
4:48 PM 78.8 °F 39.2 °F 24% 30.26 in 12.0 mi NE 12.7 mph - N/A   Scattered Clouds
5:47 PM 77.0 °F 42.8 °F 29% 30.25 in 12.0 mi NE 15.0 mph - N/A   Scattered Clouds
6:43 PM 73.4 °F 50.0 °F 44% 30.26 in 12.0 mi East 11.5 mph - N/A   Mostly Cloudy
6:52 PM 71.6 °F 51.8 °F 50% 29.78 in 12.0 mi East 11.5 mph - N/A   Mostly Cloudy
7:48 PM 69.8 °F 51.8 °F 53% 30.28 in 10.0 mi ESE 12.7 mph - N/A   Mostly Cloudy
7:50 PM 69.8 °F 51.8 °F 53% 30.26 in 10.0 mi ESE 12.7 mph - N/A   Mostly Cloudy
8:08 PM 68.0 °F 51.8 °F 56% 30.26 in 10.0 mi ESE 12.7 mph - N/A   Mostly Cloudy
8:49 PM 68.0 °F 50.0 °F 52% 30.31 in 10.0 mi ESE 9.2 mph - N/A   Scattered Clouds
9:48 PM 66.2 °F 50.0 °F 56% 29.65 in 10.0 mi SE 8.1 mph - N/A   Scattered Clouds
10:46 PM 64.4 °F 51.8 °F 64% 30.36 in 10.0 mi ENE 8.1 mph - N/A   Scattered Clouds
11:45 PM 62.6 °F 51.8 °F 68% 30.37 in 13.0 mi North 5.8 mph - N/A   Partly Cloudy